ATHENA-FIDUS

Last updated on Nov. 19, 2019, 4:25 a.m. UTC

1 39509U 14006B   19322.43954106  .00000158  00000-0  00000+0 0  9999
2 39509   0.0157 330.9254 0001294 260.5255  21.7948  1.00269944 21401
UTC
Height (km)
Latitude
Longitude
Inclination
Orbital Period
UTC large
Height (km)
Speed (km/s)
/
Latitude / Longitude
Inclination (degrees)
Orbital Period (minutes)
Azimuth
Elevation
Range (km)
Doppler Factor
iOS Compass Heading
iOS Angle

Next 30 passes for location: Hong Kong

Rise time Rise Azimuth (degrees) Set time Set Azimuth (degrees) Duration Max altitude (degrees)

No matching passes for this satellites